KB5DPX Weather Reports


Display with metric or nautical units.
time (UTC)temp
F
wind
direction
speed
MPH
gust
MPH
rain 1hr
in
rain 24hr
in
rain mn
in
humidity
%
barometer
mb
20260902141305 66 0.0 0.0 0.01 0.08 0.08 70 1013.0
20260902140754 66 0.0 0.0 0.02 0.08 0.08 72 1012.8
20260902140301 66 0.0 0.0 0.04 0.08 0.08 73 1012.6
20260902135750 66 0.0 0.0 0.06 0.08 0.08 73 1012.2
20260902135257 66 0.0 0.0 0.07 0.08 0.08 75 1011.7
20260902134805 66 0.0 0.0 0.08 0.08 0.08 77 1011.5
20260902134254 66 0.0 0.0 0.08 0.08 0.08 80 1011.7
20260902133804 67 0.0 0.0 0.08 0.08 0.08 83 1012.4
20260902133254 67 0.0 0.0 0.08 0.08 0.08 84 1013.3
20260902132801 67 0.0 0.0 0.08 0.08 0.08 85 1013.8
20260902132249 67 0.0 0.0 0.08 0.08 0.08 87 1014.4
20260902131752 67 0.0 0.0 0.08 0.08 0.08 87 1014.6
20260902131258 68 0.0 0.0 0.07 0.07 0.07 87 1014.9
20260902130252 68 0.0 0.0 0.04 0.04 0.04 87 1015.9
20260902125758 68 0.0 0.0 0.02 0.02 0.02 87 1016.5
20260902125247 68 0.0 0.0 0.01 0.01 0.01 87 1016.4
20260902124756 68 0.0 0.0 0.00 0.00 0.00 83 1016.3
20260902124247 67 0.0 0.0 0.00 0.00 0.00 74 1016.1
20260902123757 67 0.0 0.0 0.00 0.00 0.00 67 1016.0
20260902123306 67 0.0 0.0 0.00 0.00 0.00 64 1016.1
20260902122755 67 0.0 0.0 0.00 0.00 0.00 63 1015.8
20260902122305 68 0.0 0.0 0.00 0.00 0.00 63 1015.5
20260902121755 68 0.0 0.0 0.00 0.00 0.00 62 1015.2
20260902121302 69 0.0 0.0 0.00 0.00 0.00 61 1015.1
20260902120752 69 0.0 0.0 0.00 0.00 0.00 60 1015.0
20260902120300 69 0.0 0.0 0.00 0.00 0.00 60 1014.6
20260902115749 69 0.0 0.0 0.00 0.00 0.00 60 1014.2
20260902115256 69 0.0 0.0 0.00 0.00 0.00 61 1013.9
20260902114800 69 0.0 0.0 0.00 0.00 0.00 61 1013.8
20260902113746 69 0.0 0.0 0.00 0.00 0.00 61 1013.6
20260902113302 69 0.0 0.0 0.00 0.00 0.00 61 1013.5
20260902112750 69 0.0 0.0 0.00 0.00 0.00 61 1013.6
20260902112255 69 0.0 0.0 0.00 0.00 0.00 61 1013.4
20260902111746 69 0.0 0.0 0.00 0.00 0.00 61 1013.0
20260902111257 69 0.0 0.0 0.00 0.00 0.00 61 1013.1
20260902110807 69 0.0 0.0 0.00 0.00 0.00 61 1013.1
20260902110246 69 0.0 0.0 0.00 0.00 0.00 61 1012.9
20260902105802 69 0.0 0.0 0.00 0.00 0.00 61 1012.8
20260902105312 69 0.0 0.0 0.00 0.00 0.00 61 1012.9
20260902104756 69 0.0 0.0 0.00 0.00 0.00 61 1012.9
20260902104304 69 0.0 0.0 0.00 0.00 0.00 62 1012.8
20260902103755 69 0.0 0.0 0.00 0.00 0.00 61 1012.8
20260902103304 69 0.0 0.0 0.00 0.00 0.00 62 1012.9
20260902102753 69 0.0 0.0 0.00 0.00 0.00 62 1013.0
20260902102257 69 0.0 0.0 0.00 0.00 0.00 63 1013.1
20260902101801 69 0.0 0.0 0.00 0.00 0.00 63 1013.1
20260902101251 70 0.0 0.0 0.00 0.00 0.00 62 1013.2
20260902100801 70 0.0 0.0 0.00 0.00 0.00 62 1013.3
20260902100250 70 0.0 0.0 0.00 0.00 0.00 62 1013.5
20260902095756 70 0.0 0.0 0.00 0.00 0.00 63 1013.3
20260902095306 69 0.0 0.0 0.00 0.00 0.00 63 1013.3
20260902094752 69 0.0 0.0 0.00 0.00 0.00 63 1013.3
20260902094300 69 0.0 0.0 0.00 0.00 0.00 66 1013.3
20260902093747 69 0.0 0.0 0.00 0.00 0.00 65 1013.1
20260902093255 69 0.0 0.0 0.00 0.00 0.00 66 1013.2
20260902092802 69 0.0 0.0 0.00 0.00 0.00 66 1013.2
20260902092251 69 0.0 0.0 0.00 0.00 0.00 67 1013.0
20260902091758 69 0.0 0.0 0.00 0.00 0.00 68 1013.0
20260902091246 70 0.0 0.0 0.00 0.00 0.00 68 1013.0
20260902090755 70 0.0 0.0 0.00 0.00 0.00 68 1012.8
20260902090303 70 0.0 0.0 0.00 0.00 0.00 70 1012.7
20260902085750 71 0.0 0.0 0.00 0.00 0.00 69 1012.6
20260902084801 71 0.0 0.0 0.00 0.00 0.00 69 1012.7
20260902084251 71 0.0 0.0 0.00 0.00 0.00 69 1012.7
20260902083758 72 0.0 0.0 0.00 0.00 0.00 69 1012.6
20260902083306 72 0.0 0.0 0.00 0.00 0.00 68 1012.6
20260902082751 72 0.0 0.0 0.00 0.00 0.00 68 1012.6
20260902082301 72 0.0 0.0 0.00 0.00 0.00 68 1012.6
20260902081255 73 0.0 0.0 0.00 0.00 0.00 69 1012.7
20260902080805 73 0.0 0.0 0.00 0.00 0.00 69 1012.6
20260902080256 73 0.0 0.0 0.00 0.00 0.00 70 1012.5
20260902075803 73 0.0 0.0 0.00 0.00 0.00 70 1012.6
20260902075252 73 0.0 0.0 0.00 0.00 0.00 70 1012.6
20260902074759 73 0.0 0.0 0.00 0.00 0.00 71 1012.7
20260902074249 73 0.0 0.0 0.00 0.00 0.00 71 1012.6
20260902073757 73 0.0 0.0 0.00 0.00 0.00 71 1012.7
20260902073305 73 0.0 0.0 0.00 0.00 0.00 72 1012.6
20260902072754 73 0.0 0.0 0.00 0.00 0.00 72 1012.7
20260902072302 73 0.0 0.0 0.00 0.00 0.00 71 1012.7
20260902071750 73 0.0 0.0 0.00 0.00 0.00 71 1012.7
20260902071253 74 0.0 0.0 0.00 0.00 0.00 70 1012.7
20260902070803 74 0.0 0.0 0.00 0.00 0.00 70 1012.7
20260902070251 74 0.0 0.0 0.00 0.00 0.00 70 1012.7
20260902065800 74 0.0 0.0 0.00 0.00 0.00 70 1012.7
20260902065314 74 0.0 0.0 0.00 0.00 0.00 70 1012.7
20260902064801 74 0.0 0.0 0.00 0.00 0.00 70 1012.7
20260902064308 74 0.0 0.0 0.00 0.00 0.00 68 1012.6
20260902063757 74 0.0 0.0 0.00 0.00 0.00 66 1012.6
20260902063308 74 0.0 0.0 0.00 0.00 0.00 65 1012.4
20260902062754 74 0.0 0.0 0.00 0.00 0.00 63 1012.4
20260902062306 74 0.0 0.0 0.00 0.00 0.00 63 1012.4
20260902061754 74 0.0 0.0 0.00 0.00 0.00 62 1012.4
20260902061300 74 0.0 0.0 0.00 0.00 0.00 62 1012.4
20260902060808 74 0.0 0.0 0.00 0.00 0.00 63 1012.4
20260902060256 74 0.0 0.0 0.00 0.00 0.00 62 1012.4
20260902055805 74 0.0 0.0 0.00 0.00 0.00 61 1012.3
20260902055255 73 0.0 0.0 0.00 0.00 0.00 62 1012.2
20260902054801 73 0.0 0.0 0.00 0.00 0.00 62 1012.2
20260902054251 73 0.0 0.0 0.00 0.00 0.00 61 1012.1
20260902053759 73 0.0 0.0 0.00 0.00 0.00 62 1012.1
20260902053247 73 0.0 0.0 0.00 0.00 0.00 61 1012.1
20260902052258 73 0.0 0.0 0.00 0.00 0.00 61 1012.1
20260902051749 73 0.0 0.0 0.00 0.00 0.00 60 1012.0
20260902051258 73 0.0 0.0 0.00 0.00 0.00 60 1012.0
20260902050803 73 0.0 0.0 0.00 0.00 0.00 60 1012.0
20260902050252 73 0.0 0.0 0.00 0.00 0.00 60 1012.0
20260902045758 72 0.0 0.0 0.00 0.00 0.00 59 1012.1
20260902045306 72 0.0 0.0 0.00 0.00 0.00 59 1012.1
20260902044750 72 0.0 0.0 0.00 0.00 0.00 59 1012.1
20260902044257 71 0.0 0.0 0.00 0.00 0.00 59 1012.2
20260902043254 70 0.0 0.0 0.00 0.00 0.00 60 1012.2
20260902042800 69 0.0 0.0 0.00 0.00 0.00 61 1012.2
20260902042249 69 0.0 0.0 0.00 0.00 0.00 62 1012.2
20260902041753 68 0.0 0.0 0.00 0.00 0.00 65 1012.3
20260902041303 69 0.0 0.0 0.00 0.00 0.00 64 1012.4
20260902040752 69 0.0 0.0 0.00 0.00 0.00 64 1012.3
20260902035803 69 0.0 0.0 0.00 0.00 0.00 65 1012.4
20260902035254 69 0.0 0.0 0.00 0.00 0.00 65 1012.5
20260902034802 69 0.0 0.0 0.00 0.00 0.00 64 1012.6
20260902034252 69 0.0 0.0 0.00 0.00 0.00 64 1012.6
20260902033759 69 0.0 0.0 0.00 0.00 0.00 66 1012.6
20260902033249 68 0.0 0.0 0.00 0.00 0.00 65 1012.5
20260902032756 68 0.0 0.0 0.00 0.00 0.00 69 1012.6
20260902032305 68 0.0 0.0 0.00 0.00 0.00 69 1012.7
20260902031753 68 0.0 0.0 0.00 0.00 0.00 69 1012.8
20260902031301 69 0.0 0.0 0.00 0.00 0.00 69 1012.8
20260902030746 69 0.0 0.0 0.00 0.00 0.00 69 1012.8
20260902030257 69 0.0 0.0 0.00 0.00 0.00 70 1012.8
20260902025803 69 0.0 0.0 0.00 0.00 0.00 70 1012.8
20260902025252 69 0.0 0.0 0.00 0.00 0.00 71 1012.9
20260902024755 69 0.0 0.0 0.00 0.00 0.00 72 1012.8
20260902024246 69 0.0 0.0 0.00 0.00 0.00 73 1012.8
20260902023300 69 0.0 0.0 0.00 0.00 0.00 74 1012.8
20260902022749 70 0.0 0.0 0.00 0.00 0.00 74 1012.7
20260902022256 70 0.0 0.0 0.00 0.00 0.00 75 1012.7
20260902021746 70 0.0 0.0 0.00 0.00 0.00 76 1012.7
20260902021257 70 0.0 0.0 0.00 0.00 0.00 76 1012.7
20260902020747 70 0.0 0.0 0.00 0.00 0.00 77 1012.7
20260902020255 70 0.0 0.0 0.00 0.00 0.00 79 1012.7
20260902015805 71 0.0 0.0 0.00 0.00 0.00 79 1012.6
20260902015253 71 0.0 0.0 0.00 0.00 0.00 80 1012.7
20260902014304 71 0.0 0.0 0.00 0.00 0.00 77 1012.8
20260902013754 71 0.0 0.0 0.00 0.00 0.00 78 1012.7
20260902013259 71 0.0 0.0 0.00 0.00 0.00 78 1012.8
20260902012804 72 0.0 0.0 0.00 0.00 0.00 79 1012.7
20260902012254 72 0.0 0.0 0.00 0.00 0.00 79 1012.7
20260902011804 72 0.0 0.0 0.00 0.00 0.00 80 1012.7
20260902011253 72 0.0 0.0 0.00 0.00 0.00 80 1012.7
20260902010802 72 0.0 0.0 0.00 0.00 0.00 81 1012.7
20260902010253 73 0.0 0.0 0.00 0.00 0.00 82 1012.7
20260902005801 73 0.0 0.0 0.00 0.00 0.00 83 1012.5
20260902005252 73 0.0 0.0 0.00 0.00 0.00 84 1012.5
20260902004758 73 0.0 0.0 0.00 0.00 0.00 84 1012.5
20260902004306 74 0.0 0.0 0.00 0.00 0.00 85 1012.5
20260902003755 74 0.0 0.0 0.00 0.00 0.00 85 1012.5
20260902003302 74 0.0 0.0 0.00 0.00 0.00 86 1012.5
20260902002752 74 0.0 0.0 0.00 0.00 0.00 86 1012.3
20260902001748 75 0.0 0.0 0.00 0.00 0.00 86 1012.3
20260902001257 76 0.0 0.0 0.00 0.00 0.00 86 1012.3
20260902000808 76 0.0 0.0 0.00 0.00 0.00 85 1012.3
20260902000249 76 0.0 0.0 0.00 0.00 0.00 85 1012.3
20260901235800 77 0.0 0.0 0.00 0.00 0.00 84 1012.3
20260901235310 78 0.0 0.0 0.00 0.00 0.00 82 1012.3
20260901234759 78 0.0 0.0 0.00 0.00 0.00 81 1012.3
20260901234311 79 0.0 0.0 0.00 0.00 0.00 80 1012.2
20260901233758 80 0.0 0.0 0.00 0.00 0.00 78 1012.3
20260901233308 79 0.0 0.0 0.00 0.00 0.00 73 1012.3
20260901232754 80 0.0 0.0 0.00 0.00 0.00 72 1012.3
20260901232306 80 0.0 0.0 0.00 0.00 0.00 72 1012.4
20260901231751 80 0.0 0.0 0.00 0.00 0.00 71 1012.4
20260901231258 80 0.0 0.0 0.00 0.00 0.00 71 1012.4
20260901230749 80 0.0 0.0 0.00 0.00 0.00 71 1012.4
20260901230258 80 0.0 0.0 0.00 0.00 0.00 71 1012.5
20260901225804 80 0.0 0.0 0.00 0.00 0.00 72 1012.5
20260901225253 80 0.0 0.0 0.00 0.00 0.00 71 1012.5
20260901224800 81 0.0 0.0 0.00 0.00 0.00 72 1012.6
20260901224250 81 0.0 0.0 0.00 0.00 0.00 72 1012.6
20260901223758 81 0.0 0.0 0.00 0.00 0.00 71 1012.6
20260901223247 81 0.0 0.0 0.00 0.00 0.00 71 1012.5
20260901222758 82 0.0 0.0 0.00 0.00 0.00 71 1012.7
20260901222307 82 0.0 0.0 0.00 0.00 0.00 71 1012.7
20260901221755 82 0.0 0.0 0.00 0.00 0.00 72 1012.7
20260901221302 83 0.0 0.0 0.00 0.00 0.00 72 1012.6
20260901220751 83 0.0 0.0 0.00 0.00 0.00 72 1012.7
20260901220254 83 0.0 0.0 0.00 0.00 0.00 73 1012.7
20260901215803 82 0.0 0.0 0.00 0.00 0.00 74 1012.6
20260901215252 82 0.0 0.0 0.00 0.00 0.00 74 1012.7
20260901214803 83 0.0 0.0 0.00 0.00 0.00 74 1012.8
20260901214252 83 0.0 0.0 0.00 0.00 0.00 73 1012.8
20260901213801 83 0.0 0.0 0.00 0.00 0.00 73 1012.8
20260901213249 83 0.0 0.0 0.00 0.00 0.00 74 1012.7
20260901212755 83 0.0 0.0 0.00 0.00 0.00 74 1012.7
20260901212306 83 0.0 0.0 0.00 0.00 0.00 75 1012.7
20260901211754 83 0.0 0.0 0.00 0.00 0.00 75 1012.8
20260901211302 83 0.0 0.0 0.00 0.00 0.00 75 1012.9
20260901210751 83 0.0 0.0 0.00 0.00 0.00 76 1012.9
20260901210259 83 0.0 0.0 0.00 0.00 0.00 76 1012.9
20260901205748 82 0.0 0.0 0.00 0.00 0.00 77 1012.9
20260901205256 82 0.0 0.0 0.00 0.00 0.00 78 1012.9
20260901204803 82 0.0 0.0 0.00 0.00 0.00 78 1012.9
20260901204252 82 0.0 0.0 0.00 0.00 0.00 79 1013.0
20260901203800 82 0.0 0.0 0.00 0.00 0.00 79 1013.0
20260901203249 82 0.0 0.0 0.00 0.00 0.00 79 1013.0
20260901202758 82 0.0 0.0 0.00 0.00 0.00 79 1013.1
20260901202306 81 0.0 0.0 0.00 0.00 0.00 79 1013.1
20260901201756 81 0.0 0.0 0.00 0.00 0.00 80 1013.1
20260901201259 81 0.0 0.0 0.00 0.00 0.00 80 1013.1
20260901200747 81 0.0 0.0 0.00 0.00 0.00 81 1013.3
20260901200255 81 0.0 0.0 0.00 0.00 0.00 82 1013.3
20260901195805 80 0.0 0.0 0.00 0.00 0.00 83 1013.4
20260901195251 80 0.0 0.0 0.00 0.00 0.00 84 1013.5
20260901194801 80 0.0 0.0 0.00 0.00 0.00 84 1013.5
20260901194249 79 0.0 0.0 0.00 0.00 0.00 84 1013.7
20260901193756 79 0.0 0.0 0.00 0.00 0.00 84 1013.8
20260901192752 79 0.0 0.0 0.00 0.00 0.00 85 1013.8
20260901192259 79 0.0 0.0 0.00 0.00 0.00 85 1013.8
20260901191747 79 0.0 0.0 0.00 0.00 0.00 85 1013.9
20260901191257 79 0.0 0.0 0.00 0.00 0.00 85 1014.0
20260901190747 79 0.0 0.0 0.00 0.00 0.00 85 1014.0
20260901190256 79 0.0 0.0 0.00 0.00 0.00 85 1014.0
20260901185759 78 0.0 0.0 0.00 0.00 0.00 85 1014.1
20260901185248 79 0.0 0.0 0.00 0.00 0.00 85 1014.2
20260901184757 79 0.0 0.0 0.00 0.00 0.00 85 1014.1
20260901183749 79 0.0 0.0 0.00 0.00 0.00 84 1014.2
20260901183255 80 0.0 0.0 0.00 0.00 0.00 84 1014.3
20260901182802 80 0.0 0.0 0.00 0.00 0.00 84 1014.3
20260901182253 80 0.0 0.0 0.00 0.00 0.00 83 1014.4
20260901181801 80 0.0 0.0 0.00 0.00 0.00 83 1014.4
20260901181251 80 0.0 0.0 0.00 0.00 0.00 83 1014.4
20260901180758 80 0.0 0.0 0.00 0.00 0.00 83 1014.5
20260901180306 80 0.0 0.0 0.00 0.00 0.00 83 1014.5
20260901175754 80 0.0 0.0 0.00 0.00 0.00 82 1014.5
20260901175301 81 0.0 0.0 0.00 0.00 0.00 82 1014.5
20260901174751 81 0.0 0.0 0.00 0.00 0.00 82 1014.5
20260901174258 81 0.0 0.0 0.00 0.00 0.00 81 1014.5
20260901173807 81 0.0 0.0 0.00 0.00 0.00 81 1014.5
20260901173256 81 0.0 0.0 0.00 0.00 0.00 81 1014.6
20260901172804 81 0.0 0.0 0.00 0.00 0.00 82 1014.5
20260901172253 81 0.0 0.0 0.00 0.00 0.00 80 1014.6
20260901171301 81 0.0 0.0 0.00 0.00 0.00 80 1014.6
20260901170751 81 0.0 0.0 0.00 0.00 0.00 80 1014.5
20260901170300 81 0.0 0.0 0.00 0.00 0.00 81 1014.6
20260901165750 80 0.0 0.0 0.00 0.00 0.00 81 1014.7
20260901165255 80 0.0 0.0 0.00 0.00 0.00 83 1014.7
20260901164801 80 0.0 0.0 0.00 0.00 0.00 83 1014.6
20260901163755 79 0.0 0.0 0.00 0.00 0.00 85 1014.6
20260901163306 79 0.0 0.0 0.00 0.00 0.00 85 1014.6
20260901162754 78 0.0 0.0 0.00 0.00 0.00 86 1014.5
20260901162301 78 0.0 0.0 0.00 0.00 0.00 86 1014.6
20260901161748 78 0.0 0.0 0.00 0.00 0.00 86 1014.6
20260901161255 77 0.0 0.0 0.00 0.00 0.00 86 1014.7
20260901160805 77 0.0 0.0 0.00 0.00 0.00 86 1014.6
20260901160255 77 0.0 0.0 0.00 0.00 0.00 86 1014.7
20260901155800 77 0.0 0.0 0.00 0.00 0.00 85 1014.7
20260901155249 76 0.0 0.0 0.00 0.00 0.00 83 1014.8
20260901154756 76 0.0 0.0 0.00 0.00 0.00 81 1014.8
20260901154247 75 0.0 0.0 0.00 0.00 0.00 77 1014.8
20260901153753 74 0.0 0.0 0.00 0.00 0.00 73 1014.7
20260901153303 74 0.0 0.0 0.00 0.00 0.00 71 1014.8
20260901152753 74 0.0 0.0 0.00 0.00 0.00 64 1014.8
20260901152305 73 0.0 0.0 0.00 0.00 0.00 63 1014.8
20260901151257 73 0.0 0.0 0.00 0.00 0.00 59 1014.8
20260901150746 72 0.0 0.0 0.00 0.00 0.00 59 1014.9
20260901150248 72 0.0 0.0 0.00 0.00 0.00 59 1015.0
20260901145756 72 0.0 0.0 0.00 0.03 0.00 59 1015.0
20260901145306 72 0.0 0.0 0.00 0.03 0.00 59 1015.0
20260901144752 71 0.0 0.0 0.00 0.03 0.00 59 1015.0
20260901144300 71 0.0 0.0 0.00 0.03 0.00 59 1015.0
20260901143751 71 0.0 0.0 0.00 0.03 0.00 60 1014.9
20260901143258 71 0.0 0.0 0.00 0.03 0.00 60 1014.8
20260901142748 71 0.0 0.0 0.00 0.03 0.00 60 1014.8
20260901142253 71 0.0 0.0 0.00 0.03 0.00 60 1014.7
20260901141800 70 0.0 0.0 0.00 0.03 0.00 60 1014.6